Regional Weather Roundup
Issued by NWS

Home | Current Version | Previous Version | Graphics & Text | Print | Product List | Glossary On
Versions: 1 2 3 4 5 6 7 8 9 10 11 12 13 14 15 16 17 18 19 20 21 22 23 24 25 26 27 28 29 30 31 32 33 34 35 36 37 38 39 40 41 42 43 44 45 46 47 48 49 50
202
ASUS43 KFSD 272210
RWRSD

WEATHER ROUNDUP FOR SOUTH DAKOTA
NATIONAL WEATHER SERVICE SIOUX FALLS SD
500 PM CDT THU APR 27 2017

NOTE: "FAIR" INDICATES FEW OR NO CLOUDS BELOW 12,000 FEET WITH NO
SIGNIFICANT WEATHER AND/OR OBSTRUCTIONS TO VISIBILITY.


SDZ001>005-009-010-012>017-272300-
NORTHWEST AND NORTH CENTRAL SOUTH DAKOTA

CITY           SKY/WX    TMP DP  RH WIND       PRES   REMARKS
BUFFALO          N/A     50  27  40 E8G18     29.59S
FAITH            N/A     46  30  53 E3        29.66F
MOBRIDGE       SUNNY     55  25  31 N12       29.65F
$$

SDZ012>016-024>037-041>051-057-063-072>074-272300-
SOUTHWEST AND SOUTH CENTRAL SOUTH DAKOTA

CITY           SKY/WX    TMP DP  RH WIND       PRES   REMARKS
RAPID CTY ARPT PTSUNNY   46  32  58 E8        29.63S
PIERRE         SUNNY     50  29  44 CALM      29.66F
CUSTER         CLOUDY    35  29  78 E13       29.59R WCI  26
ELLSWORTH AFB  PTSUNNY   47  34  59 E9G17     29.63R
PHILIP         CLOUDY    46  32  58 E8        29.66S
PINE RIDGE     CLOUDY    51  35  54 E15       29.58S
SPEARFISH      FAIR      43  36  75 E18       29.60S
WINNER         FAIR      54  32  43 E7        29.66F
$$

SDZ004>011-016>023-039-040-272300-
NORTHEAST SOUTH DAKOTA

CITY           SKY/WX    TMP DP  RH WIND       PRES   REMARKS
ABERDEEN       PTSUNNY   48  29  47 VRB7      29.70F
WATERTOWN      SUNNY     41  26  55 NW16G24   29.67F
BROOKINGS      SUNNY     44  28  53 N13G21    29.66F
SISSETON         N/A     41  30  65 N16       29.68S
$$

SDZ017-020-022-023-036>040-048>070-272300-
SOUTHEAST SOUTH DAKOTA

CITY           SKY/WX    TMP DP  RH WIND       PRES   REMARKS
SIOUX FALLS    MOSUNNY   51  34  52 NW13G18   29.67F
HURON          SUNNY     49  28  44 N10       29.69S
CHAMBERLAIN    SUNNY     53  33  46 N5        29.67F
MITCHELL       SUNNY     51  30  44 N12G17    29.70S
YANKTON        SUNNY     52  30  43 N7        29.68S
$$

ABBREVIATIONS USED IN REMARKS
   TC - TEMPERATURE IN CELSIUS
  WCI - WIND CHILL INDEX
   HX - HEAT INDEX
  VSB - VISIBILITY





USA.gov is the U.S. government's official web portal to all federal, state and local government web resources and services.